This is the latest recevied weather packets stored in our database for station/object NE1CU. If no packets are shown the sender has not sent any weather packets the latest 10 day(s).
| Time | Temp. | Humidity | Pressure | Rain* | Wind** | Luminosity | Snow |
|---|---|---|---|---|---|---|---|
| 1777915939 | 20.56° C | 33% | 1010.8 hPa | 0 mm | - | 933 W/m² | - |
| 1777915635 | 21.11° C | 31% | 1010.6 hPa | 0 mm | - | 931 W/m² | - |
| 1777915332 | 21.11° C | 32% | 1010.8 hPa | 0 mm | - | 934 W/m² | - |
| 1777915029 | 20.56° C | 34% | 1010.7 hPa | 0 mm | - | 940 W/m² | - |
| 1777914726 | 20.56° C | 32% | 1011 hPa | 0 mm | - | 937 W/m² | - |
| 1777914422 | 20° C | 35% | 1010.9 hPa | 0 mm | - | 943 W/m² | - |
| 1777914120 | 20.56° C | 33% | 1010.7 hPa | 0 mm | - | 950 W/m² | - |
| 1777913816 | 20° C | 34% | 1010.8 hPa | 0 mm | - | 944 W/m² | - |
| 1777913512 | 20° C | 33% | 1011 hPa | 0 mm | - | 945 W/m² | - |
| 1777913209 | 20° C | 32% | 1010.9 hPa | 0 mm | - | 944 W/m² | - |
| 1777912905 | 20° C | 32% | 1010.9 hPa | 0 mm | - | 947 W/m² | - |
| 1777912602 | 20° C | 32% | 1011 hPa | 0 mm | - | 944 W/m² | - |
| 1777912298 | 20° C | 32% | 1011.1 hPa | 0 mm | - | 940 W/m² | - |
| 1777911994 | 20° C | 34% | 1011.2 hPa | 0 mm | - | 936 W/m² | - |
| 1777911690 | 20° C | 32% | 1011.2 hPa | 0 mm | - | 940 W/m² | - |
| 1777911386 | 20° C | 33% | 1011.4 hPa | 0 mm | - | 931 W/m² | - |
| 1777911085 | 20° C | 33% | 1011.4 hPa | 0 mm | - | 929 W/m² | - |
| 1777910782 | 20° C | 36% | 1011.4 hPa | 0 mm | - | 922 W/m² | - |
| 1777910478 | 19.44° C | 34% | 1011.6 hPa | 0 mm | - | 919 W/m² | - |
| 1777910175 | 18.89° C | 34% | 1011.7 hPa | 0 mm | - | 914 W/m² | - |
| 1777909872 | 18.89° C | 34% | 1011.6 hPa | 0 mm | - | 915 W/m² | - |
| 1777909569 | 18.89° C | 36% | 1011.7 hPa | 0 mm | - | 908 W/m² | - |
| 1777909266 | 19.44° C | 34% | 1012 hPa | 0 mm | - | 902 W/m² | - |
| 1777908964 | 19.44° C | 35% | 1011.9 hPa | 0 mm | - | 888 W/m² | - |
| 1777908662 | 19.44° C | 34% | 1012.1 hPa | 0 mm | - | 882 W/m² | - |
* Rain latest hour (hover to see other rain measurements)
** Current wind speed in m/s (hover to see current wind gust speed)